Terug naar catalogus

STARLINK-34845

ActiefCommunicatieSSO
NORAD 65289·PAYLOAD·🇺🇸 United States

Gelanceerd Aug 22, 2025 vanaf Vandenberg Space Force Base

Loading…

Volgende Passages (komende 24 uur)

TLE

VersSource: CelesTrak SupGP

Epoch: Sep 14, 2026, 21:37 UTC

1 65289C 25184S   26257.90118056 -.00016984  00000+0 -52747-3 0  2576
2 65289  97.2837 305.9357 0000962  89.1698 335.0821 15.33433373    16

Volg STARLINK-34845 in realtime met AllMySat

Download on the App Store